Temperature
12 12 12 12 12 12 12 12 12 12 12 12 12 12 12 11 11 11 11 11 11 11 11 11 11 11 11 11 11 11 10 10 10 11 11 11 11 11 11 11 11 11 11
12 12 12 12 12 12 12 12 12 12 12 11 11 11 11 11 11 11 11 11 11 11 11 11 10 10 10 10 10 10 10 10 10 10 10 10 10 10 10 10 10 10 10
11 11 11 11 11 12 12 11 11 11 11 11 11 11 11 10 10 10 10 10 10 10 10 10 10 10 10 10 10 9 9 9 9 9 9 9 9 9 9 9 9 9 9
11 11 11 11 11 11 11 11 11 11 11 11 10 10 10 10 10 10 10 10 10 10 10 10 10 10 10 9 9 9 9 9 9 9 9 9 9 9 9 9 9 9 9
11 11 11 11 11 11 11 11 11 10 10 10 10 10 10 9 9 9 9 9 9 9 9 9 9 9 9 9 9 9 9 8 8 8 8 8 8 8 8 8 8 8 8
10 10 10 10 10 10 10 10 10 10 10 10 9 9 9 9 9 9 9 9 9 9 9 9 9 9 9 9 9 9 9 8 8 8 8 8 8 8 8 7 7 7 7
10 10 10 10 10 10 10 10 10 10 9 9 9 8 8 8 8 8 8 8 8 8 8 8 8 8 8 8 8 8 8 8 8 7 7 7 7 7 7 7 7 7 7
9 9 9 9 9 9 9 9 9 9 9 9 8 7 7 7 7 8 8 8 8 8 8 8 8 8 8 8 8 8 8 8 7 7 7 7 7 7 6 6 6 6 6
9 9 9 9 9 9 9 9 9 9 8 8 8 7 7 8 6 7 7 7 7 7 7 7 7 7 7 7 7 7 7 7 7 7 7 6 6 6 6 6 6 6 6
9 8 8 8 8 8 8 8 8 8 8 8 7 7 7 7 6 6 6 7 7 7 7 7 7 7 7 7 7 7 7 7 7 6 6 6 6 6 6 6 6 5 5
8 8 8 8 8 8 8 8 8 8 7 7 7 7 7 7 6 6 6 6 6 6 6 6 6 6 6 6 6 6 6 6 6 6 6 6 6 6 6 6 5 5 5
8 7 7 7 7 7 7 7 7 7 7 7 7 7 6 6 6 5 5 5 5 5 6 6 6 6 6 6 6 6 6 6 6 6 5 5 5 5 5 5 5 5 5
7 7 7 7 7 7 7 7 7 7 7 6 6 6 6 6 6 5 5 4 4 5 5 5 5 5 5 5 5 5 5 5 5 5 5 5 5 5 5 5 5 4 4
7 7 7 7 7 6 7 6 6 6 6 6 6 6 6 5 5 5 5 4 4 4 4 4 5 5 5 5 5 5 5 5 5 5 5 4 4 4 4 4 4 4 4
6 6 6 6 6 6 6 6 6 6 6 5 5 5 5 5 5 5 4 4 3 3 3 4 4 4 4 4 4 4 4 4 4 4 4 4 4 4 4 3 3 3 3
6 6 5 5 5 5 5 5 5 5 5 5 5 5 5 4 4 4 4 4 4 3 2 3 3 3 3 4 4 4 4 4 4 4 4 4 3 3 3 3 3 3 3
5 5 5 5 5 5 5 5 5 5 5 4 4 4 4 4 4 4 4 3 3 3 2 3 3 3 3 3 3 3 3 3 3 3 3 3 3 3 3 2 2 2 2
5 5 4 4 4 4 4 4 4 4 4 4 4 4 4 4 3 3 3 3 3 3 2 2 2 2 2 2 2 2 2 3 3 3 3 2 2 2 2 2 2 2 2
4 4 4 4 4 4 3 3 3 3 3 3 3 3 3 3 3 3 3 2 2 2 2 2 2 2 2 2 2 2 2 2 2 2 2 2 2 2 1 1 1 1 1
4 4 3 3 3 3 3 3 3 3 3 3 3 3 3 3 2 2 2 2 2 2 2 1 1 2 2 2 1 1 1 1 1 1 1 1 1 1 1 1 1 1 1
3 3 3 3 3 3 3 3 3 3 3 2 2 2 2 2 2 2 2 2 1 1 1 1 1 1 1 1 1 1 1 1 1 1 1 1 0 0 0 0 0 0 0
3 3 2 2 2 2 2 2 2 2 2 2 2 2 2 2 2 2 2 1 1 1 0 0 0 0 0 0 0 0 -0 -0 -0 -0 -0 -0 -0 -0 -0 -0 -0 0 -0
2 2 2 2 2 2 2 2 2 1 1 1 1 1 1 1 1 1 1 1 1 0 0 0 0 0 -0 -0 -0 -0 -1 -1 -1 -1 -1 -1 -1 -1 -1 -1 -1 -0 -1
2 2 1 1 1 1 1 1 1 1 1 1 1 1 1 1 1 0 0 0 0 0 -0 -0 -0 -0 -1 -1 -1 -1 -1 -1 -1 -1 -2 -2 -1 -1 -1 -1 -1 -1 -1
1 1 1 1 1 1 1 1 1 1 1 1 0 0 0 0 0 -0 -0 -0 -0 -0 -1 -1 -1 -1 -1 -1 -1 -2 -2 -2 -2 -2 -2 -2 -2 -2 -2 -1 -1 -1 -1
1 1 0 0 0 0 0 0 0 0 0 -0 -0 -0 -0 -0 -0 -1 -1 -1 -1 -1 -1 -1 -1 -1 -1 -2 -2 -2 -2 -2 -3 -3 -3 -3 -3 -3 -3 -2 -2 -2 -2
Wind_Speed
3 2 2 3 3 3 3 2 2 2 2 2 2 2 2 2 2 2 4 6 6 5 5 4 4 4 4 4 4 4 4 4 4 5 5 5 6 6 7 7 7 8 8
3 3 2 2 3 2 2 2 2 2 1 1 2 2 2 2 2 2 3 5 6 5 4 4 3 3 3 3 3 3 4 4 4 5 5 6 6 7 7 8 8 8 9
4 3 3 2 2 3 3 2 2 2 2 2 2 2 2 2 2 2 2 2 3 5 5 4 4 3 3 3 3 4 4 5 5 6 6 6 7 7 8 8 8 9 9
5 4 3 2 2 3 3 2 2 2 2 2 2 1 1 1 1 2 2 1 1 2 3 4 4 4 3 3 3 3 4 4 5 6 6 7 7 8 8 8 9 9 10
5 4 3 3 2 2 2 3 3 2 3 2 2 1 1 1 1 1 1 1 1 1 1 2 3 4 4 3 3 4 4 5 5 6 6 7 8 8 9 9 9 10 10
4 4 3 3 3 2 2 3 3 3 2 2 2 1 1 1 1 1 1 1 1 1 0 0 0 1 3 3 3 4 5 5 6 6 7 7 8 9 9 9 10 10 11
4 3 3 3 3 3 3 3 3 3 3 2 2 1 1 2 2 1 1 1 1 0 1 1 1 2 2 2 2 4 5 6 6 7 7 8 8 9 9 10 11 11 11
4 3 3 3 3 3 4 4 4 3 2 2 2 2 2 3 2 2 2 2 1 1 1 2 2 2 2 2 2 3 5 7 7 8 8 9 9 10 10 11 11 11 11
3 3 3 3 3 4 3 4 4 4 3 2 2 2 2 2 1 3 3 3 2 2 2 2 3 3 4 3 4 4 5 7 8 9 10 10 10 11 11 11 11 12 12
2 3 3 4 4 3 4 4 4 4 5 4 3 2 2 1 2 2 3 3 3 4 4 3 4 4 4 4 4 5 6 7 9 10 10 11 11 11 11 12 12 12 12
2 3 3 3 3 3 3 4 4 4 4 4 3 3 2 2 4 3 4 4 4 4 4 4 4 4 5 5 5 5 6 8 9 10 11 11 11 12 12 13 13 13 13
2 3 3 3 3 3 4 4 4 4 4 4 4 4 3 3 4 4 5 5 5 4 4 4 5 5 5 5 6 6 8 9 9 10 11 12 12 12 13 13 14 14 14
2 3 3 3 3 3 3 3 3 3 4 4 4 4 4 4 3 4 5 5 5 4 4 5 5 5 5 6 6 7 8 9 10 11 12 12 12 12 13 13 14 14 14
2 3 3 3 3 3 3 3 3 4 4 4 4 4 3 4 4 4 4 4 5 5 5 5 4 4 5 6 7 8 8 9 10 11 12 12 11 11 12 13 13 13 13
2 3 3 3 3 3 3 3 3 4 4 4 4 4 4 4 4 4 4 5 5 6 6 5 4 4 5 6 7 8 9 8 10 11 11 11 11 11 12 12 12 13 13
3 3 3 3 3 3 3 3 3 4 4 4 4 5 5 4 4 4 4 4 5 6 6 5 5 5 6 6 7 9 9 9 10 10 11 10 11 11 12 13 13 13 14
3 3 4 3 3 3 3 3 4 4 5 5 5 5 6 5 4 4 4 5 5 5 7 7 5 6 7 7 7 8 8 9 8 10 11 11 11 12 12 13 13 13 14
4 4 4 4 4 4 4 4 5 5 6 6 6 6 6 5 6 5 5 6 6 6 7 8 7 6 7 7 7 7 7 8 8 9 11 12 12 12 12 12 13 13 13
3 4 4 4 4 5 5 5 5 6 6 6 6 7 7 7 7 6 6 6 6 6 6 7 7 6 6 6 7 7 7 7 8 9 10 11 11 11 12 12 13 13 13
4 4 4 4 5 5 5 5 5 6 6 6 7 7 7 7 8 7 6 7 6 7 6 6 7 6 6 6 5 6 7 6 6 7 8 9 10 11 12 12 13 12 13
3 4 4 4 4 5 5 5 5 6 6 6 7 7 7 8 8 8 7 7 7 6 6 6 7 6 6 5 5 5 7 7 7 5 6 6 7 7 8 10 11 11 12
3 3 4 4 5 4 5 7 6 6 6 7 7 7 7 7 8 10 11 10 10 9 8 7 7 8 8 7 6 5 6 7 6 4 6 7 6 7 7 8 10 11 11
3 4 4 5 5 6 6 8 8 7 7 7 7 6 6 6 8 7 9 10 11 12 12 10 9 9 8 7 6 7 7 8 8 6 6 7 7 7 7 8 11 11 12
4 4 5 5 5 6 6 7 8 7 7 7 7 7 7 7 7 7 7 8 9 9 10 9 9 9 8 7 7 7 8 8 8 6 5 6 7 7 7 8 9 10 11
4 4 5 5 6 6 6 7 7 5 6 7 7 7 7 7 8 8 8 8 8 7 7 9 10 10 10 9 8 5 5 5 7 6 4 5 5 7 7 7 7 9 10
4 4 5 5 6 6 6 7 7 5 6 6 6 6 7 8 8 9 8 8 8 7 6 6 7 8 9 8 9 7 6 6 6 5 3 4 4 4 4 4 5 6 7
Wind_Direction
184 162 160 165 165 161 162 161 160 151 147 129 110 104 101 103 114 118 94 71 58 62 59 66 78 75 68 59 47 34 22 13 3 358 354 348 340 333 330 328 330 330 330
178 170 155 168 166 165 159 165 155 156 154 142 133 122 114 109 118 126 124 98 78 66 59 55 61 66 59 45 36 25 15 5 358 352 348 344 340 333 327 323 324 324 324
172 166 165 169 172 168 168 157 144 150 144 140 138 122 111 109 116 123 131 124 106 82 65 51 44 50 55 47 40 35 23 17 9 3 357 350 343 336 327 323 321 320 321
163 165 166 169 175 176 172 165 161 156 150 147 135 124 127 119 108 102 124 133 119 110 86 56 49 43 38 32 17 12 5 358 354 351 346 345 344 340 338 336 332 327 322
165 167 166 165 171 184 176 170 170 168 157 144 133 132 147 154 124 105 98 110 111 103 109 92 66 43 24 13 0 354 347 342 337 335 333 334 335 333 331 329 328 328 326
167 162 162 163 170 180 178 176 164 159 152 146 138 133 150 171 172 158 130 113 120 121 137 208 228 44 21 0 354 347 337 332 327 322 322 321 323 323 323 324 323 322 321
154 164 167 168 176 186 184 173 158 153 151 149 158 162 183 188 196 208 208 179 134 207 248 264 275 285 280 322 337 334 326 324 322 317 315 313 313 313 315 318 317 316 317
156 170 177 175 181 187 183 179 170 170 167 195 209 198 213 211 201 216 226 228 235 251 268 271 266 276 283 284 312 314 314 314 314 313 311 311 308 308 311 312 312 312 312
160 168 183 184 186 195 191 190 186 189 190 201 220 232 236 234 228 214 229 232 238 248 262 285 283 273 276 279 288 299 307 307 306 305 305 305 307 305 306 306 307 308 309
160 171 184 190 189 195 195 196 202 200 195 201 201 231 269 288 247 236 223 231 248 257 260 260 267 274 267 269 279 301 299 297 299 299 300 301 303 304 304 306 306 305 306
172 175 183 190 190 194 196 195 200 206 205 206 208 210 219 234 251 248 257 255 252 251 255 258 261 268 271 266 269 292 293 290 293 295 296 298 299 302 303 304 304 304 303
174 178 182 191 195 192 195 196 200 208 212 209 209 214 218 225 231 239 252 258 265 264 259 255 253 259 270 271 268 284 284 283 288 292 293 295 298 299 300 300 300 300 301
191 182 180 190 198 192 192 193 197 208 210 210 215 219 224 233 239 246 255 263 272 276 262 250 246 253 265 270 273 280 274 280 284 288 290 293 297 298 297 296 296 297 299
198 181 184 194 201 196 191 190 199 207 208 210 220 224 229 234 234 236 243 254 269 268 259 258 250 249 264 274 285 283 275 276 281 285 287 289 293 295 295 295 295 297 299
187 182 187 197 202 202 200 197 209 212 210 214 220 224 231 237 238 240 240 243 253 267 269 265 264 260 277 279 285 281 281 282 282 281 283 287 289 291 292 292 292 294 296
189 185 193 203 207 211 211 212 217 218 216 220 223 224 230 236 237 237 236 237 243 256 268 271 268 280 282 283 286 285 283 284 277 276 280 285 287 288 289 289 291 292 293
202 203 205 210 215 222 226 224 226 222 222 226 227 228 231 234 233 235 235 236 241 246 258 270 272 277 277 281 284 285 288 284 281 275 277 281 283 285 285 288 290 290 291
212 213 215 218 225 232 234 234 234 228 225 229 232 232 233 235 235 237 237 237 242 246 255 268 272 276 277 279 283 283 286 283 281 277 274 278 280 281 283 285 286 288 289
215 217 221 224 229 235 238 241 241 238 234 235 238 238 237 235 237 239 242 245 247 249 250 262 272 278 281 283 288 285 284 282 283 281 278 276 275 279 282 283 283 286 288
220 225 230 234 236 239 240 241 243 245 243 243 244 243 243 239 242 243 245 247 249 253 253 259 270 277 281 286 283 286 292 287 284 285 283 280 275 276 278 278 279 283 287
229 230 233 238 241 242 242 241 244 246 248 249 250 246 246 245 249 249 248 248 249 253 256 259 266 272 275 280 280 289 293 295 289 284 286 281 281 278 278 274 273 278 283
234 234 238 241 246 250 246 249 253 249 249 249 252 253 252 247 246 249 251 253 251 252 253 256 262 264 270 276 282 283 290 293 290 288 291 286 282 277 279 277 278 281 282
236 243 248 250 253 251 247 251 253 254 253 253 253 254 255 252 249 250 252 252 252 254 255 258 259 262 269 271 274 277 278 282 279 290 295 284 280 277 280 277 279 279 280
240 248 252 254 257 254 252 258 258 255 254 254 254 255 257 257 252 253 258 257 257 254 253 255 261 268 272 272 267 273 279 285 286 278 277 279 284 285 287 280 272 276 280
249 255 256 256 259 260 254 259 262 260 257 259 259 257 255 258 255 254 257 259 262 261 259 257 264 269 270 267 264 265 268 277 281 276 265 271 286 294 287 275 272 274 277
254 261 262 260 260 263 257 257 257 256 259 264 264 261 255 255 259 257 256 257 262 268 269 268 263 262 261 256 250 249 252 260 275 275 252 258 280 298 291 275 280 281 278
Height
1522 1523 1524 1525 1526 1527 1528 1529 1529 1530 1530 1531 1531 1531 1532 1532 1532 1532 1532 1532 1533 1533 1533 1532 1532 1532 1531 1531 1530 1529 1529 1528 1527 1526 1525 1524 1524 1523 1522 1521 1520 1519 1518
1519 1521 1522 1523 1524 1525 1526 1527 1527 1528 1528 1529 1529 1529 1530 1530 1530 1530 1531 1530 1531 1531 1531 1530 1530 1530 1529 1529 1528 1528 1527 1526 1525 1524 1523 1522 1521 1520 1519 1518 1517 1517 1516
1517 1518 1520 1521 1522 1523 1524 1525 1525 1526 1526 1527 1527 1527 1528 1528 1528 1528 1529 1529 1529 1529 1528 1528 1528 1528 1527 1527 1526 1526 1525 1524 1523 1522 1521 1520 1519 1518 1517 1516 1515 1514 1513
1514 1516 1517 1519 1520 1521 1522 1522 1523 1524 1524 1525 1525 1525 1526 1526 1526 1526 1527 1527 1527 1526 1526 1526 1526 1525 1525 1525 1524 1523 1523 1522 1521 1520 1519 1518 1517 1516 1515 1514 1513 1512 1510
1512 1513 1515 1516 1517 1518 1519 1520 1521 1521 1522 1522 1523 1523 1524 1524 1524 1524 1524 1524 1524 1524 1524 1524 1523 1523 1523 1522 1522 1521 1520 1520 1519 1518 1517 1516 1515 1513 1512 1511 1510 1509 1508
1510 1511 1512 1514 1515 1516 1517 1517 1518 1519 1520 1520 1521 1521 1521 1522 1522 1522 1522 1522 1521 1521 1521 1521 1521 1520 1520 1519 1519 1518 1518 1517 1516 1515 1514 1513 1512 1511 1510 1508 1507 1506 1505
1507 1509 1510 1511 1512 1513 1514 1515 1516 1517 1517 1518 1519 1519 1519 1519 1519 1519 1519 1519 1519 1519 1519 1518 1518 1518 1517 1516 1516 1515 1515 1514 1513 1512 1511 1510 1509 1508 1507 1505 1504 1503 1501
1505 1507 1508 1508 1510 1511 1512 1513 1513 1514 1514 1516 1517 1517 1518 1519 1517 1516 1517 1517 1516 1516 1516 1516 1515 1515 1514 1513 1512 1512 1511 1511 1510 1509 1508 1507 1506 1505 1503 1502 1501 1499 1498
1503 1504 1505 1506 1507 1509 1509 1510 1511 1512 1512 1513 1514 1516 1516 1516 1515 1514 1514 1514 1514 1513 1513 1512 1512 1511 1511 1510 1509 1508 1508 1507 1506 1505 1505 1504 1502 1501 1500 1499 1497 1496 1494
1501 1502 1503 1504 1505 1506 1507 1508 1509 1509 1510 1510 1511 1512 1513 1513 1513 1512 1512 1511 1510 1510 1509 1509 1508 1508 1507 1506 1505 1504 1504 1503 1502 1502 1501 1500 1498 1497 1496 1495 1493 1491 1490
1498 1499 1501 1501 1502 1503 1504 1505 1506 1507 1507 1507 1508 1508 1509 1510 1510 1510 1509 1508 1507 1506 1506 1505 1505 1504 1503 1503 1501 1500 1500 1499 1498 1497 1496 1495 1494 1493 1492 1490 1489 1487 1486
1496 1497 1498 1498 1499 1500 1501 1502 1503 1503 1504 1504 1504 1505 1505 1506 1506 1506 1506 1505 1504 1503 1502 1502 1501 1500 1499 1498 1497 1496 1495 1495 1494 1493 1492 1491 1489 1488 1487 1485 1484 1482 1481
1493 1494 1495 1496 1497 1497 1498 1498 1499 1500 1500 1500 1501 1501 1502 1502 1502 1503 1502 1501 1500 1499 1498 1497 1497 1496 1495 1494 1493 1492 1491 1490 1489 1488 1487 1486 1485 1483 1482 1480 1479 1477 1476
1490 1491 1492 1493 1493 1494 1495 1495 1496 1496 1497 1497 1497 1497 1498 1498 1498 1498 1498 1498 1497 1496 1494 1493 1492 1491 1491 1489 1488 1487 1486 1485 1484 1483 1482 1481 1480 1478 1477 1475 1474 1472 1471
1487 1488 1489 1490 1490 1491 1491 1491 1492 1492 1493 1493 1493 1494 1494 1494 1494 1494 1494 1494 1495 1493 1491 1489 1488 1487 1487 1485 1484 1483 1482 1480 1479 1478 1477 1476 1475 1473 1472 1470 1469 1467 1466
1484 1485 1486 1486 1487 1487 1487 1488 1488 1488 1489 1489 1489 1489 1489 1490 1490 1490 1490 1490 1489 1489 1487 1485 1484 1483 1482 1481 1479 1478 1477 1475 1474 1473 1472 1470 1469 1468 1467 1465 1464 1462 1461
1482 1482 1482 1483 1483 1483 1484 1484 1484 1484 1485 1485 1485 1485 1485 1486 1485 1485 1485 1485 1484 1484 1482 1480 1480 1479 1478 1476 1475 1473 1472 1471 1470 1468 1467 1465 1464 1463 1461 1460 1459 1457 1455
1478 1479 1479 1479 1480 1480 1480 1480 1480 1480 1480 1481 1481 1481 1481 1481 1481 1481 1480 1480 1479 1479 1478 1476 1475 1474 1473 1471 1470 1468 1467 1466 1465 1463 1461 1460 1459 1458 1456 1455 1453 1452 1450
1475 1475 1476 1476 1476 1476 1477 1477 1476 1476 1476 1476 1477 1476 1476 1476 1476 1476 1475 1475 1475 1474 1473 1472 1470 1469 1468 1466 1465 1463 1462 1461 1460 1458 1456 1455 1454 1452 1451 1449 1448 1446 1444
1472 1472 1472 1472 1472 1472 1472 1472 1472 1472 1471 1472 1472 1472 1471 1471 1471 1471 1470 1470 1470 1469 1468 1467 1465 1464 1463 1462 1461 1459 1457 1456 1455 1453 1452 1450 1448 1447 1446 1444 1443 1441 1439
1469 1469 1469 1468 1468 1468 1468 1468 1468 1467 1467 1467 1467 1466 1466 1466 1466 1466 1465 1465 1465 1464 1463 1462 1461 1459 1458 1457 1456 1454 1453 1451 1450 1449 1447 1445 1444 1442 1440 1439 1437 1435 1434
1465 1465 1465 1464 1464 1464 1464 1464 1463 1463 1463 1462 1462 1461 1461 1460 1460 1460 1460 1460 1460 1459 1458 1457 1456 1454 1453 1453 1451 1450 1448 1446 1444 1444 1443 1440 1439 1437 1435 1434 1432 1430 1428
1462 1461 1461 1461 1460 1460 1460 1459 1459 1459 1458 1457 1457 1456 1456 1455 1455 1455 1454 1454 1453 1453 1453 1453 1451 1449 1449 1448 1447 1445 1444 1442 1440 1439 1438 1435 1434 1432 1430 1429 1427 1425 1423
1458 1458 1457 1457 1456 1455 1455 1455 1455 1454 1453 1453 1452 1451 1451 1450 1450 1450 1449 1448 1448 1447 1447 1446 1446 1445 1444 1444 1443 1442 1440 1437 1436 1434 1433 1431 1428 1427 1425 1423 1421 1419 1417
1454 1454 1453 1452 1452 1451 1451 1451 1451 1450 1449 1448 1447 1447 1446 1446 1445 1445 1444 1443 1442 1442 1442 1441 1440 1440 1439 1439 1438 1436 1434 1433 1430 1429 1428 1426 1424 1422 1419 1417 1416 1414 1412
1450 1450 1449 1449 1448 1448 1447 1447 1446 1445 1444 1444 1443 1442 1442 1441 1441 1440 1439 1439 1437 1437 1436 1435 1435 1434 1434 1433 1432 1431 1430 1428 1426 1424 1423 1422 1419 1418 1414 1412 1411 1409 1407